Wind_Speed
32 33 35 35 35 36 37 38 39 38 38 37 38 38 38 37 37 37 38 38 39 39 39 39 39 39 39 40 41 41 40 40 39 39 39 39 39 39 40 41 42 43 43 44
31 31 33 35 35 35 36 36 37 37 36 36 37 38 38 37 36 37 38 38 39 39 40 40 40 40 40 40 41 42 41 41 40 40 39 40 40 40 41 42 42 43 43 44
30 30 32 33 33 34 35 36 36 35 33 34 35 36 35 36 36 36 38 38 39 40 40 41 41 41 40 41 41 42 42 41 41 42 42 41 41 41 42 43 44 44 45 44
27 29 31 31 31 32 33 33 34 33 33 34 34 34 34 34 35 36 38 39 40 40 40 41 42 42 42 42 42 42 42 42 42 43 43 44 43 44 44 44 44 45 46 46
24 26 29 28 28 30 31 31 33 33 32 33 33 32 32 33 34 35 37 38 39 40 40 41 42 42 42 42 42 42 42 43 44 44 44 45 45 44 45 45 45 45 45 46
21 23 25 25 26 28 29 30 30 31 31 31 32 31 30 32 33 34 36 37 38 39 40 40 41 42 42 42 42 43 42 43 43 43 44 44 44 44 45 46 46 45 45 46
19 20 21 21 21 24 27 27 28 29 29 30 31 31 30 30 31 33 34 36 38 39 40 40 41 42 42 42 42 42 43 44 44 44 44 44 44 44 45 45 45 45 46 46
19 19 18 20 20 21 23 24 26 27 28 29 29 29 30 30 31 32 33 34 35 37 38 40 41 41 41 41 41 42 42 43 43 44 44 44 44 44 45 45 45 45 45 46
18 18 18 19 20 20 21 22 23 25 26 27 27 28 29 30 30 30 31 32 33 34 36 37 38 39 41 41 41 41 41 42 42 42 43 42 43 43 44 44 45 45 45 45
17 17 17 19 20 20 20 21 22 22 23 24 24 25 26 27 27 28 28 29 30 31 32 34 35 37 39 40 41 41 41 40 40 40 41 41 41 41 42 42 43 44 43 44
17 17 17 18 19 20 21 22 23 23 23 24 24 25 26 26 27 27 27 27 28 29 29 31 33 35 36 38 39 39 39 39 39 39 39 39 39 40 40 41 41 42 43 44
15 16 17 18 19 20 21 22 22 23 24 24 25 25 25 25 26 26 26 27 27 27 28 29 30 32 34 35 36 37 37 37 37 38 38 39 39 39 40 40 40 40 40 41
14 15 16 17 18 19 20 21 21 23 23 23 24 24 24 24 24 25 25 26 27 27 27 28 30 31 32 33 34 35 36 36 36 37 38 38 39 39 39 39 39 40 41 41
14 15 15 17 17 18 19 20 21 21 22 23 23 23 24 24 24 25 25 25 26 27 28 29 30 31 32 32 33 33 35 36 37 37 38 38 38 39 39 39 40 40 41 42
14 15 15 16 17 17 18 19 20 20 21 21 22 23 23 23 24 24 25 26 26 26 26 27 28 29 30 31 32 33 34 35 36 37 37 38 38 38 39 40 40 40 41 42
14 15 16 17 18 18 18 19 19 20 20 20 21 21 22 23 23 23 23 24 25 26 27 27 28 29 29 30 31 32 33 34 35 36 37 38 38 38 39 40 41 41 41 42
15 15 15 16 17 18 19 19 20 20 21 21 21 20 21 21 21 22 22 23 24 25 26 27 28 29 29 30 30 31 32 32 33 34 35 36 37 38 39 40 40 40 41 41
15 15 15 15 16 18 18 20 21 21 21 22 22 22 22 22 22 22 22 23 24 24 25 26 27 28 29 29 30 30 31 32 33 34 34 35 36 37 38 39 40 40 41 41
16 16 17 17 17 18 19 20 21 21 22 23 23 23 24 24 24 24 24 24 25 25 25 26 27 28 28 29 30 30 31 32 33 34 34 35 36 37 38 38 39 40 41 41
18 18 18 18 18 18 19 20 21 21 22 24 24 25 25 25 26 26 25 25 26 26 27 28 28 29 29 29 30 31 31 32 33 33 34 34 35 36 37 37 38 38 39 40
19 19 19 19 19 19 19 20 20 21 22 23 24 25 25 26 26 26 26 26 26 27 27 28 28 29 30 30 31 31 32 32 32 33 33 34 35 35 35 36 36 37 37 37
20 20 20 21 21 21 21 21 22 22 23 23 24 25 25 26 27 27 27 27 27 28 28 28 29 29 30 31 31 31 31 32 32 33 33 33 33 34 34 35 35 36 36 35
18 19 19 20 20 20 20 21 21 22 22 23 23 24 25 25 26 27 27 28 28 28 29 29 29 30 30 31 31 31 31 32 32 32 33 33 33 33 33 33 34 34 34 34
16 16 16 17 17 18 19 20 20 21 22 23 24 24 25 26 26 27 27 28 28 28 29 29 30 30 30 30 30 31 31 32 32 32 32 33 32 32 32 32 32 32 32 32
16 17 17 17 18 19 19 20 21 22 22 23 24 25 25 26 26 26 27 27 27 28 28 29 29 29 29 29 30 30 31 32 32 32 32 32 31 31 31 31 31 31 31 31
16 16 17 18 19 19 20 21 21 22 22 23 23 25 25 26 26 27 27 27 28 28 28 28 28 29 29 29 29 30 30 30 30 30 30 29 29 29 29 29 29 29 29 29
15 16 17 18 19 20 20 21 22 22 23 23 24 24 25 26 26 27 27 28 28 28 28 28 28 28 28 29 29 29 29 28 28 28 27 27 27 27 27 27 26 26 26 26
Wind_Direction
239 238 236 236 235 235 236 238 240 239 239 238 240 241 241 240 240 239 239 239 238 237 238 238 238 238 239 238 239 241 241 242 243 244 245 247 248 249 248 247 247 248 250 252
241 239 237 236 235 235 236 237 239 240 238 238 240 241 241 239 239 238 238 238 238 237 238 238 238 239 239 239 240 241 241 242 243 244 247 248 249 249 249 250 251 251 252 254
242 240 238 236 233 235 236 237 239 240 238 238 240 242 242 241 240 238 238 238 238 238 238 238 239 240 239 239 241 241 242 242 243 246 248 249 249 249 250 250 251 252 253 254
245 239 238 236 235 235 237 237 238 239 238 238 238 239 242 242 241 238 237 238 239 240 239 239 239 239 239 239 241 242 243 244 246 247 248 249 249 250 250 250 252 253 255 256
246 243 240 236 236 235 237 237 237 239 239 239 238 240 241 241 241 239 237 238 238 239 240 240 240 239 240 240 242 243 244 246 248 249 249 248 250 251 251 252 253 255 256 257
244 244 241 239 238 237 237 238 237 238 239 240 240 240 240 241 241 241 239 238 239 239 239 240 240 239 241 241 243 244 245 246 248 249 250 250 251 253 254 254 255 256 257 258
241 243 242 240 240 239 237 235 235 236 238 238 237 239 241 241 242 242 242 241 240 240 241 241 241 241 242 243 245 245 246 247 249 251 252 253 254 254 254 256 257 258 259 260
240 242 242 240 240 241 239 235 234 236 238 238 239 240 241 241 241 242 243 243 243 243 243 243 242 242 243 245 246 247 248 248 250 252 253 254 255 255 256 257 259 260 260 261
241 244 242 241 242 242 241 240 238 237 239 240 242 242 244 243 242 242 243 245 245 245 245 245 245 245 245 247 248 249 250 251 252 253 254 254 255 256 257 258 258 260 261 261
240 241 243 245 245 244 245 245 243 241 241 242 242 241 242 242 243 244 245 247 247 247 246 247 247 247 247 248 249 250 251 252 253 253 253 254 254 255 256 257 258 259 261 262
239 239 240 244 245 245 247 248 246 245 244 245 245 244 245 246 248 249 248 249 249 247 247 248 248 248 248 249 250 250 251 252 252 253 254 254 254 255 256 257 260 261 262 263
242 241 244 246 247 246 246 247 247 247 246 246 246 245 245 248 249 250 250 249 251 252 251 251 251 250 250 250 250 250 250 251 252 253 254 255 255 257 258 260 261 262 262 264
246 248 249 250 249 248 246 245 246 245 245 245 245 244 244 247 248 250 250 251 251 252 252 252 252 251 251 252 251 251 250 251 252 254 255 256 257 258 260 260 261 262 263 265
254 254 253 252 253 252 250 247 245 244 245 245 244 244 245 247 248 250 251 251 251 252 253 253 252 252 252 251 251 251 251 252 254 255 256 257 258 259 260 261 263 264 265 267
258 258 256 253 254 253 252 249 246 244 244 244 245 245 246 248 249 250 251 252 252 253 254 254 253 252 252 251 252 253 252 253 255 256 256 257 259 260 261 262 264 265 266 268
261 261 259 257 253 252 251 249 246 243 244 245 247 247 248 250 250 250 251 253 254 255 256 256 255 254 254 254 254 254 254 255 256 257 258 259 259 261 262 263 264 265 267 268
264 263 259 255 251 250 251 248 245 244 245 246 247 249 248 250 252 253 254 256 257 258 259 258 257 257 257 256 257 257 258 259 259 260 260 260 261 262 263 264 265 266 268 270
262 263 261 256 251 249 248 247 247 248 248 248 249 250 251 252 254 256 258 260 261 261 262 261 260 260 260 259 261 261 262 262 263 263 263 264 265 265 265 266 267 268 269 271
260 261 262 260 254 251 250 250 249 250 250 251 252 253 255 256 258 260 261 262 263 264 264 264 263 263 263 262 263 264 265 266 267 267 267 267 268 268 268 268 269 270 271 272
260 261 263 262 258 255 255 254 254 254 254 254 255 255 256 258 260 261 262 264 265 267 267 268 267 266 265 265 266 267 268 268 268 268 269 268 269 269 269 269 270 271 272 273
261 262 262 261 261 259 259 259 258 258 257 257 257 257 258 259 261 263 265 267 268 269 269 269 269 268 267 267 268 269 269 269 269 269 269 269 269 270 270 271 271 272 273 274
263 263 263 262 262 262 262 261 260 260 259 258 258 259 260 261 262 264 266 267 268 269 270 270 270 270 270 270 270 270 270 271 270 269 269 270 270 271 271 272 272 273 273 274
266 267 266 264 262 262 262 261 261 261 261 260 259 260 262 264 265 266 267 268 270 270 271 271 272 273 273 272 272 271 272 272 272 271 270 271 272 273 273 273 274 273 273 274
268 269 267 265 263 263 263 264 264 263 263 263 263 264 265 266 267 268 269 270 271 272 272 273 274 274 274 273 273 273 273 273 273 273 272 273 273 273 273 273 273 273 274 275
271 269 268 268 267 266 266 266 267 267 266 266 266 266 267 268 269 269 270 271 272 272 273 274 275 276 276 275 274 274 273 273 274 274 273 273 272 272 271 272 273 273 274 275
276 274 272 272 271 270 270 270 270 269 269 268 269 269 269 269 271 272 272 272 273 273 273 274 275 276 276 276 275 275 274 274 274 273 272 272 272 271 271 271 272 273 273 273
281 280 278 277 275 274 274 273 272 272 272 272 272 273 272 271 272 273 273 273 274 273 273 274 275 275 275 276 277 276 275 275 273 271 269 269 270 271 271 271 272 272 273 272
Height
5498 5502 5505 5510 5515 5519 5523 5528 5533 5539 5545 5551 5554 5558 5562 5566 5570 5575 5579 5584 5588 5592 5596 5599 5603 5607 5611 5614 5618 5622 5626 5629 5633 5636 5638 5641 5643 5645 5648 5650 5653 5656 5658 5661
5491 5495 5497 5502 5507 5511 5515 5520 5525 5530 5536 5542 5545 5548 5552 5557 5561 5565 5570 5574 5578 5583 5586 5590 5594 5597 5601 5605 5608 5612 5616 5620 5623 5626 5629 5631 5633 5635 5638 5640 5643 5646 5648 5650
5484 5488 5490 5495 5500 5504 5508 5513 5518 5523 5529 5532 5536 5539 5543 5547 5551 5556 5560 5564 5569 5573 5577 5581 5584 5588 5592 5595 5599 5602 5606 5610 5613 5616 5619 5621 5623 5625 5628 5630 5632 5635 5638 5640
5478 5482 5485 5491 5494 5498 5502 5506 5510 5515 5520 5524 5527 5531 5535 5539 5542 5546 5550 5555 5559 5562 5567 5571 5575 5578 5582 5585 5589 5592 5596 5600 5603 5606 5608 5610 5613 5615 5617 5619 5621 5624 5626 5628
5472 5475 5478 5484 5488 5491 5495 5499 5503 5508 5512 5515 5519 5523 5527 5530 5533 5537 5541 5545 5549 5553 5557 5561 5564 5568 5572 5576 5579 5582 5586 5589 5592 5594 5597 5599 5602 5604 5606 5608 5610 5612 5614 5616
5468 5470 5474 5479 5482 5485 5489 5492 5496 5500 5504 5508 5512 5516 5520 5522 5525 5528 5532 5535 5539 5543 5547 5550 5554 5558 5562 5565 5569 5572 5575 5578 5580 5582 5585 5588 5590 5592 5594 5596 5598 5600 5602 5604
5464 5466 5469 5473 5476 5480 5485 5487 5490 5493 5497 5500 5504 5508 5511 5514 5517 5520 5523 5526 5529 5533 5537 5540 5544 5548 5551 5555 5558 5561 5564 5566 5569 5571 5574 5576 5578 5580 5582 5584 5586 5588 5590 5591
5460 5462 5468 5469 5472 5475 5477 5480 5483 5487 5490 5493 5497 5500 5503 5506 5509 5512 5514 5517 5520 5523 5527 5530 5534 5538 5541 5544 5547 5550 5553 5555 5558 5560 5562 5564 5567 5569 5571 5573 5575 5576 5577 5579
5457 5461 5462 5464 5466 5469 5472 5474 5477 5480 5483 5487 5490 5493 5496 5499 5501 5504 5506 5509 5511 5514 5517 5521 5524 5527 5531 5534 5536 5539 5542 5544 5546 5549 5551 5553 5555 5557 5559 5561 5563 5565 5566 5567
5453 5456 5458 5460 5462 5464 5467 5469 5472 5475 5478 5480 5483 5486 5489 5491 5494 5496 5499 5501 5503 5506 5508 5511 5514 5517 5520 5523 5526 5529 5531 5533 5536 5538 5540 5542 5544 5546 5548 5550 5551 5553 5554 5555
5450 5452 5454 5456 5458 5460 5462 5464 5467 5469 5472 5474 5477 5480 5482 5484 5487 5489 5491 5493 5495 5498 5500 5502 5504 5507 5509 5512 5515 5518 5521 5523 5525 5527 5530 5532 5534 5535 5537 5539 5540 5541 5543 5544
5447 5449 5450 5452 5453 5455 5457 5459 5461 5464 5466 5468 5471 5473 5475 5478 5480 5482 5484 5486 5488 5490 5492 5494 5496 5498 5500 5502 5505 5508 5510 5513 5515 5517 5519 5521 5523 5525 5526 5528 5529 5530 5531 5532
5443 5444 5446 5447 5449 5450 5452 5454 5456 5458 5460 5462 5465 5467 5469 5471 5473 5475 5477 5479 5480 5482 5484 5486 5487 5489 5491 5494 5496 5498 5501 5503 5505 5507 5509 5511 5513 5514 5516 5517 5518 5519 5519 5520
5439 5440 5442 5443 5444 5445 5447 5449 5451 5453 5455 5457 5459 5461 5463 5465 5467 5468 5470 5471 5473 5475 5476 5478 5480 5481 5483 5485 5487 5489 5491 5493 5495 5497 5499 5500 5502 5503 5505 5506 5507 5507 5508 5508
5435 5436 5437 5438 5439 5440 5442 5444 5446 5448 5450 5452 5453 5455 5457 5458 5460 5461 5463 5464 5466 5467 5468 5469 5471 5473 5474 5476 5478 5479 5481 5483 5485 5486 5488 5490 5491 5492 5494 5495 5496 5496 5497 5497
5432 5432 5433 5434 5434 5436 5437 5439 5440 5442 5444 5446 5448 5449 5451 5452 5454 5455 5456 5457 5458 5459 5460 5461 5463 5464 5465 5467 5469 5470 5471 5473 5474 5476 5477 5479 5480 5481 5482 5483 5484 5485 5485 5485
5428 5428 5429 5429 5430 5431 5432 5434 5435 5437 5439 5441 5442 5444 5445 5446 5447 5448 5449 5450 5451 5451 5452 5453 5455 5456 5457 5458 5459 5461 5462 5463 5464 5465 5466 5468 5469 5470 5471 5471 5472 5473 5473 5473
5423 5424 5424 5424 5425 5426 5427 5428 5430 5431 5433 5435 5436 5438 5439 5440 5441 5442 5443 5443 5444 5444 5445 5446 5447 5448 5448 5449 5450 5451 5452 5453 5454 5455 5456 5457 5457 5458 5459 5460 5460 5461 5461 5461
5419 5419 5419 5420 5420 5421 5422 5423 5424 5425 5427 5428 5430 5431 5432 5433 5434 5435 5435 5436 5437 5437 5438 5438 5438 5439 5440 5441 5442 5442 5443 5444 5444 5445 5445 5446 5446 5447 5447 5448 5448 5448 5448 5448
5414 5414 5414 5415 5415 5415 5416 5417 5418 5419 5420 5421 5423 5424 5425 5426 5427 5427 5428 5428 5429 5429 5429 5430 5430 5430 5431 5431 5432 5433 5433 5434 5434 5434 5435 5435 5435 5435 5436 5436 5436 5436 5436 5435
5408 5409 5409 5409 5410 5410 5410 5411 5412 5413 5413 5414 5415 5416 5417 5418 5419 5419 5420 5421 5421 5421 5421 5421 5421 5421 5422 5422 5423 5423 5423 5423 5423 5423 5424 5424 5424 5424 5424 5424 5424 5424 5424 5423
5403 5403 5403 5404 5404 5404 5404 5405 5405 5406 5407 5407 5408 5409 5409 5410 5411 5411 5412 5412 5412 5412 5412 5412 5412 5412 5412 5412 5413 5413 5413 5413 5413 5413 5413 5413 5413 5413 5413 5413 5413 5413 5412 5412
5397 5397 5397 5397 5397 5398 5398 5398 5399 5399 5400 5400 5400 5401 5402 5402 5402 5403 5404 5404 5404 5404 5403 5403 5403 5403 5403 5403 5403 5403 5403 5403 5403 5402 5402 5402 5402 5402 5402 5402 5402 5402 5401 5401
5392 5392 5391 5391 5391 5392 5392 5392 5392 5392 5392 5393 5393 5393 5394 5394 5394 5394 5394 5394 5394 5394 5394 5394 5394 5393 5393 5393 5393 5392 5392 5392 5392 5392 5392 5392 5391 5392 5392 5392 5391 5391 5391 5391
5387 5386 5386 5386 5386 5386 5386 5386 5385 5385 5385 5385 5385 5385 5385 5385 5386 5385 5385 5385 5385 5385 5385 5384 5384 5384 5383 5383 5383 5382 5382 5382 5381 5381 5381 5381 5381 5381 5381 5381 5381 5381 5381 5381
5381 5381 5380 5380 5379 5379 5379 5379 5378 5378 5378 5378 5378 5377 5377 5377 5377 5377 5377 5376 5376 5376 5376 5375 5375 5374 5374 5373 5373 5372 5372 5371 5371 5371 5371 5371 5371 5372 5372 5372 5372 5372 5372 5371
5376 5375 5375 5374 5373 5373 5372 5372 5371 5371 5370 5370 5370 5369 5369 5369 5368 5368 5368 5367 5367 5367 5366 5366 5366 5365 5365 5364 5363 5363 5362 5362 5361 5361 5361 5362 5362 5363 5363 5363 5363 5363 5363 5363